Weather History for Howell, MI

Change the Weather History Date:

Thursday, January 3, 2013

  Actual Average Record
Temperature  
Mean Temperature 22 °F -  
Max Temperature 29 °F 32 °F 57 °F (2004)
Min Temperature 15 °F 19 °F -10 °F (2014)
Degree Days  
Heating Degree Days 43    
Moisture  
Dew Point 17 °F    
Average Humidity 74    
Maximum Humidity 83    
Minimum Humidity 61    
Precipitation  
Precipitation 0.00 in - - ()
Sea Level Pressure  
Sea Level Pressure 30.07 in    
Wind  
Wind Speed 8 mph (SW)    
Max Wind Speed 16 mph    
Max Gust Speed 21 mph    
Visibility 8 miles    
Events Snow    
Averages and records for this station are not official NWS values.
T = Trace of Precipitation, MM = Missing Value Source: NWS Daily Summary

Daily Weather History Graph

Daily Weather History Graph

Search for Another Location

Airport:

Trip Planner

Search our weather history database for the weather conditions in past years. The results will help you decide how hot, cold, wet, or windy it might be!

Date:

Astronomy

Jan. 03, 2013 Rise Set
Actual Time 8:06 AM EST 5:15 PM EST
Civil Twilight 7:34 AM EST 5:47 PM EST
Nautical Twilight 6:58 AM EST 6:22 PM EST
Astronomical Twilight 6:24 AM EST 6:56 PM EST
Moon 11:59 PM EST (1/3) 11:08 AM EST (1/3)
Length of Visible Light 10h 12m
Length of Day
9h 09m
Waning Gibbous, 65% of the Moon is Illuminated
Jan 3
Waning Gibbous
Jan 4
Last Quarter
Jan 11
New
Jan 18
First Quarter
Jan 26
Full

Hourly Weather History & Observations

Time (EST) Temp. Windchill Dew Point Humidity Pressure Visibility Wind Dir Wind Speed Gust Speed Precip Events Conditions
12:14 AM 23.5 °F 13.7 °F 16.7 °F 75% 30.11 in 10.0 mi SSW 9.2 mph - N/A   Overcast
12:35 AM 22.6 °F 14.3 °F 15.8 °F 75% 30.11 in 10.0 mi SSW 6.9 mph - N/A   Overcast
12:54 AM 21.6 °F 12.1 °F 15.3 °F 77% 30.11 in 10.0 mi SSW 8.1 mph - N/A   Scattered Clouds
1:14 AM 20.7 °F 11.9 °F 14.7 °F 78% 30.10 in 10.0 mi SSW 6.9 mph - N/A   Clear
1:35 AM 20.1 °F 12.3 °F 14.5 °F 79% 30.10 in 10.0 mi SSW 5.8 mph - N/A   Clear
1:54 AM 19.6 °F 9.7 °F 14.2 °F 80% 30.10 in 10.0 mi South 8.1 mph - N/A   Clear
2:14 AM 19.4 °F 11.5 °F 13.5 °F 78% 30.10 in 10.0 mi SSW 5.8 mph - N/A   Clear
2:35 AM 18.5 °F 10.4 °F 12.9 °F 79% 30.10 in 10.0 mi SSW 5.8 mph - N/A   Clear
2:54 AM 18.1 °F 10.0 °F 12.0 °F 77% 30.10 in 10.0 mi SSW 5.8 mph - N/A   Clear
3:14 AM 17.4 °F 9.1 °F 10.6 °F 75% 30.10 in 10.0 mi South 5.8 mph - N/A   Clear
3:34 AM 16.9 °F 9.8 °F 9.1 °F 72% 30.09 in 10.0 mi SSW 4.6 mph - N/A   Clear
3:54 AM 16.3 °F 9.2 °F 8.1 °F 70% 30.08 in 10.0 mi SSW 4.6 mph - N/A   Clear
4:15 AM 15.8 °F 10.2 °F 7.3 °F 69% 30.08 in 10.0 mi SSW 3.5 mph - N/A   Scattered Clouds
4:34 AM 15.8 °F 7.2 °F 7.5 °F 70% 30.07 in 10.0 mi SSW 5.8 mph - N/A   Mostly Cloudy
4:54 AM 16.5 °F 6.0 °F 6.6 °F 65% 30.06 in 10.0 mi SSW 8.1 mph - N/A   Overcast
5:15 AM 16.7 °F 6.2 °F 6.3 °F 64% 30.06 in 10.0 mi SSW 8.1 mph - N/A   Overcast
5:34 AM 16.7 °F 7.2 °F 5.9 °F 63% 30.05 in 10.0 mi SSW 6.9 mph - N/A   Overcast
5:54 AM 17.2 °F 6.8 °F 5.7 °F 61% 30.05 in 10.0 mi SSW 8.1 mph - N/A   Overcast
6:14 AM 17.2 °F 7.8 °F 5.7 °F 61% 30.05 in 10.0 mi SSW 6.9 mph - N/A   Overcast
6:34 AM 17.2 °F 8.9 °F 5.9 °F 61% 30.05 in 10.0 mi SW 5.8 mph - N/A   Overcast
6:55 AM 17.4 °F 9.1 °F 6.1 °F 61% 30.05 in 10.0 mi SSW 5.8 mph - N/A   Overcast
7:14 AM 17.6 °F 9.3 °F 6.1 °F 61% 30.04 in 10.0 mi SSW 5.8 mph - N/A   Overcast
7:34 AM 17.6 °F 8.2 °F 6.6 °F 62% 30.04 in 10.0 mi SSW 6.9 mph - N/A   Overcast
7:55 AM 18.0 °F 9.8 °F 7.2 °F 63% 30.04 in 10.0 mi SSW 5.8 mph - N/A   Overcast
8:34 AM 18.5 °F 8.4 °F 8.4 °F 65% 30.04 in 10.0 mi SSW 8.1 mph - N/A   Overcast
8:55 AM 19.0 °F 10.0 °F 9.3 °F 66% 30.05 in 10.0 mi SW 6.9 mph - N/A   Overcast
9:14 AM 19.4 °F 10.4 °F 10.2 °F 68% 30.05 in 10.0 mi SW 6.9 mph - N/A   Overcast
9:35 AM 20.5 °F 11.7 °F 11.3 °F 68% 30.05 in 10.0 mi SW 6.9 mph - N/A   Overcast
9:55 AM 21.6 °F 10.6 °F 12.7 °F 69% 30.05 in 10.0 mi SW 10.4 mph - N/A   Overcast
10:14 AM 21.9 °F 11.7 °F 13.5 °F 70% 30.05 in 7.0 mi WSW 9.2 mph - N/A   Overcast
10:35 AM 22.1 °F 12.0 °F 14.2 °F 72% 30.05 in 7.0 mi SW 9.2 mph - N/A   Overcast
10:54 AM 22.8 °F 13.6 °F 15.4 °F 73% 30.06 in 7.0 mi SW 8.1 mph - N/A   Overcast
11:14 AM 23.4 °F 14.3 °F 16.3 °F 75% 30.05 in 5.0 mi SW 8.1 mph - N/A   Haze
11:35 AM 24.6 °F 14.4 °F 18.0 °F 76% 30.04 in 5.0 mi SW 10.4 mph 17.3 mph N/A   Haze
11:54 AM 25.3 °F 16.0 °F 18.9 °F 76% 30.03 in 5.0 mi WSW 9.2 mph - N/A   Haze
12:15 PM 25.9 °F 16.6 °F 19.4 °F 76% 30.02 in 5.0 mi WSW 9.2 mph - N/A   Haze
12:35 PM 26.4 °F 17.3 °F 20.1 °F 77% 30.03 in 5.0 mi WSW 9.2 mph - N/A   Haze
12:54 PM 27.0 °F 16.1 °F 20.7 °F 77% 30.03 in 5.0 mi West 12.7 mph - N/A   Haze
1:15 PM 27.1 °F 16.4 °F 21.2 °F 78% 30.02 in 4.0 mi West 12.7 mph 16.1 mph N/A   Haze
1:34 PM 27.5 °F 16.8 °F 21.7 °F 79% 30.02 in 5.0 mi West 12.7 mph 16.1 mph N/A   Haze
1:55 PM 27.5 °F 16.3 °F 22.1 °F 80% 30.02 in 4.0 mi WSW 13.8 mph - N/A   Haze
2:15 PM 28.0 °F 18.6 °F 22.3 °F 79% 30.02 in 4.0 mi WSW 10.4 mph - N/A   Haze
2:34 PM 28.0 °F 16.1 °F 22.6 °F 80% 30.02 in 4.0 mi WSW 16.1 mph - N/A   Haze
2:55 PM 28.0 °F 18.6 °F 22.8 °F 81% 30.03 in 4.0 mi WSW 10.4 mph - N/A   Haze
3:14 PM 28.0 °F 18.6 °F 23.0 °F 81% 30.04 in 4.0 mi West 10.4 mph - N/A   Haze
3:34 PM 28.2 °F 18.9 °F 23.4 °F 82% 30.04 in 3.0 mi WSW 10.4 mph - N/A   Haze
3:55 PM 28.2 °F 18.9 °F 23.4 °F 82% 30.05 in 3.0 mi WSW 10.4 mph 16.1 mph N/A   Haze
4:14 PM 28.4 °F 17.5 °F 23.7 °F 83% 30.05 in 3.0 mi WSW 13.8 mph - N/A   Overcast
4:35 PM 28.4 °F 18.5 °F 23.9 °F 83% 30.06 in 3.0 mi WSW 11.5 mph 19.6 mph N/A   Overcast
4:54 PM 28.4 °F 17.0 °F 23.9 °F 83% 30.06 in 3.0 mi WSW 15.0 mph 19.6 mph N/A   Overcast
5:14 PM 28.4 °F 19.7 °F 23.9 °F 83% 30.07 in 4.0 mi WSW 9.2 mph - N/A   Overcast
5:35 PM 28.8 °F 19.5 °F 23.9 °F 82% 30.08 in 4.0 mi WSW 10.4 mph 16.1 mph N/A Snow Light Snow
5:54 PM 28.9 °F 19.2 °F 24.3 °F 83% 30.09 in 5.0 mi West 11.5 mph - N/A   Haze
6:14 PM 28.9 °F 19.8 °F 23.9 °F 81% 30.09 in 5.0 mi West 10.4 mph - N/A   Haze
6:35 PM 29.1 °F 19.4 °F 23.9 °F 81% 30.10 in 5.0 mi West 11.5 mph - N/A   Haze
6:54 PM 29.3 °F 19.1 °F 23.5 °F 79% 30.11 in 5.0 mi West 12.7 mph - N/A   Haze
7:14 PM 29.3 °F 18.2 °F 23.0 °F 77% 30.11 in 7.0 mi West 15.0 mph 20.7 mph N/A   Overcast
7:35 PM 29.1 °F 19.4 °F 22.6 °F 77% 30.12 in 7.0 mi West 11.5 mph 19.6 mph N/A   Overcast
7:54 PM 28.9 °F 18.6 °F 22.3 °F 76% 30.12 in 7.0 mi West 12.7 mph 18.4 mph N/A   Overcast
8:14 PM 28.9 °F 19.8 °F 22.5 °F 77% 30.13 in 7.0 mi West 10.4 mph - N/A   Overcast
8:35 PM 28.8 °F 19.5 °F 22.1 °F 76% 30.13 in 7.0 mi West 10.4 mph - N/A   Overcast
8:54 PM 28.6 °F 19.9 °F 21.7 °F 76% 30.13 in 7.0 mi West 9.2 mph - N/A   Overcast
9:15 PM 28.6 °F 18.2 °F 21.6 °F 75% 30.13 in 7.0 mi West 12.7 mph - N/A   Overcast
9:35 PM 28.6 °F 19.3 °F 21.0 °F 73% 30.13 in 7.0 mi West 10.4 mph - N/A   Overcast
9:54 PM 28.8 °F 19.5 °F 20.3 °F 71% 30.13 in 10.0 mi West 10.4 mph 16.1 mph N/A   Overcast
10:15 PM 28.8 °F 19.5 °F 20.3 °F 71% 30.12 in 10.0 mi West 10.4 mph - N/A   Overcast
10:34 PM 28.8 °F 21.7 °F 20.3 °F 71% 30.11 in 10.0 mi WSW 6.9 mph - N/A   Overcast
10:54 PM 28.2 °F 20.2 °F 20.3 °F 72% 30.12 in 10.0 mi WSW 8.1 mph - N/A   Overcast
11:15 PM 28.2 °F 21.0 °F 21.7 °F 77% 30.11 in 7.0 mi WSW 6.9 mph - N/A   Overcast
11:34 PM 28.2 °F 19.5 °F 22.1 °F 78% 30.10 in 7.0 mi SW 9.2 mph - N/A   Overcast
11:54 PM 28.2 °F 20.2 °F 22.1 °F 78% 30.10 in 7.0 mi SW 8.1 mph - N/A   Overcast